Wind_Gust
7 11 16 16 12 9 9 12 13 10 6 8 7 8 12 13 13 13 16 12 11 19 19 20 22 20 11 12 14 18 10 12 17 19 19 20 21 21 23 23 24 24 27 25 21 18 18 18 19 17 18 19 20 21 22 22 22 22 26 26 27 26 24 25 25 25 24 24 21 18 20 20 19 19 14 14 14 15 15 15 15 15 15 16 16 16
9 12 15 11 10 9 11 10 8 8 8 12 15 14 17 13 19 13 18 19 12 12 17 17 20 18 14 15 16 16 18 19 19 19 20 20 21 21 23 24 24 25 23 12 10 12 14 19 18 19 21 21 24 25 25 26 27 22 22 25 27 26 25 26 26 25 24 23 23 21 21 19 19 19 18 17 15 15 14 15 14 14 15 17 17 17
10 17 14 14 15 10 8 8 8 11 12 8 14 12 15 16 13 13 16 16 13 13 23 18 20 19 13 16 17 18 19 21 20 20 22 21 21 21 23 24 25 23 22 15 14 17 21 21 21 22 21 23 27 25 26 24 22 23 23 23 25 28 28 27 26 25 26 22 21 21 18 20 18 15 11 13 13 14 15 15 15 15 17 18 18 17
17 10 11 12 8 7 5 7 9 8 9 13 12 14 18 9 11 16 11 10 13 14 16 18 26 24 16 17 22 23 22 19 12 12 15 15 23 25 26 25 24 25 25 21 21 23 21 23 23 22 22 23 22 22 22 23 26 24 24 22 24 27 26 27 27 25 22 21 20 14 11 12 12 15 13 11 12 15 15 16 16 16 17 18 18 18
20 10 7 10 9 9 9 8 10 12 15 13 15 17 19 10 13 16 11 10 15 22 19 19 27 29 20 22 24 20 21 19 19 15 14 15 15 20 23 25 27 28 26 24 22 19 21 23 24 26 27 24 25 25 27 27 28 27 27 23 24 27 28 27 26 26 23 21 17 15 10 11 11 10 14 16 16 18 18 17 18 19 18 19 19 18
18 17 9 10 11 12 12 12 15 13 18 13 14 17 16 13 13 14 13 11 15 21 21 15 28 31 16 21 26 23 22 23 19 18 18 18 17 18 17 19 23 24 24 27 27 26 27 27 26 25 23 22 23 25 26 27 27 22 22 22 24 23 26 29 26 27 26 25 24 24 24 22 25 21 24 26 25 22 21 22 17 17 19 19 18 18
14 7 11 14 15 13 14 16 9 13 16 12 14 14 17 15 15 14 12 11 15 24 16 11 29 31 13 13 17 22 24 26 22 19 21 19 19 19 20 21 20 22 23 19 20 22 23 24 26 25 25 27 28 29 27 24 23 24 24 25 25 25 26 29 27 27 27 26 26 25 23 19 21 22 21 16 16 20 20 18 18 18 17 19 19 18
9 8 6 6 10 13 12 14 11 13 15 20 8 9 9 11 13 15 15 16 20 12 17 14 13 23 24 24 16 9 13 17 19 23 24 22 20 20 20 21 21 24 22 23 23 25 25 26 27 28 29 28 32 30 25 25 24 27 27 26 25 24 24 26 28 30 30 29 27 24 20 20 20 18 19 19 18 16 17 19 18 17 18 18 18 18
10 8 9 9 9 12 13 10 9 16 18 15 9 5 7 10 12 13 13 16 18 15 24 18 17 26 28 23 18 16 18 21 22 24 25 25 24 22 22 24 23 24 22 21 19 21 25 26 25 24 26 29 31 25 25 28 29 27 25 24 24 24 24 24 26 30 31 30 29 24 22 20 18 16 15 18 17 19 18 17 18 17 17 18 17 17
11 11 11 12 13 17 10 14 14 16 17 10 6 6 8 8 11 12 14 16 15 16 23 21 20 32 30 21 17 21 26 27 27 25 25 28 29 23 22 19 20 18 18 19 17 19 22 25 27 29 31 29 27 22 22 20 17 20 23 25 26 26 26 28 27 29 31 31 28 23 22 21 19 17 16 18 21 20 18 18 18 18 18 17 17 17
11 6 9 11 17 14 13 16 15 18 16 10 8 12 9 8 11 11 15 15 15 22 28 22 17 22 33 19 24 28 34 25 22 20 19 23 25 22 18 18 17 19 19 18 16 15 18 21 25 26 26 27 20 16 16 19 22 24 25 26 27 28 26 26 28 28 33 32 31 27 22 22 19 18 20 22 21 20 18 20 20 19 18 18 18 17
12 15 17 15 12 11 10 16 11 12 11 10 13 11 12 16 10 14 12 14 20 26 24 22 19 18 31 14 20 25 24 22 16 19 19 18 21 22 13 17 18 17 18 19 19 18 17 15 16 15 17 15 16 17 20 20 22 25 27 26 27 25 26 27 29 29 35 34 33 25 22 23 21 21 24 27 24 24 22 21 21 19 17 17 17 17
16 23 17 11 12 19 18 19 21 13 10 16 16 14 14 15 15 19 21 19 23 31 16 9 13 21 34 30 18 20 21 24 23 22 20 15 15 15 15 15 16 18 16 18 20 20 18 20 20 20 21 18 21 26 26 26 26 26 26 27 28 28 27 27 27 31 34 33 34 30 25 22 21 23 23 24 23 23 24 24 21 20 20 19 19 20
20 8 8 13 7 22 21 26 21 19 23 19 21 20 19 21 15 12 17 21 24 23 24 13 9 28 21 26 27 33 34 29 27 25 20 22 19 18 15 10 12 17 19 22 22 23 23 23 22 23 23 24 26 27 30 27 25 25 26 28 30 31 28 27 27 30 33 31 28 26 25 23 22 23 22 22 22 25 24 22 22 22 21 23 23 22
17 20 14 13 12 12 25 28 21 12 13 23 17 21 22 20 19 17 21 20 20 23 17 14 22 21 12 15 25 31 32 30 31 33 27 19 19 18 18 15 16 15 17 21 23 25 25 25 24 24 24 24 25 27 29 27 29 26 26 27 29 26 27 29 30 29 33 32 28 26 24 23 22 23 24 23 20 22 23 21 19 19 18 18 19 20
13 22 16 15 9 12 18 20 19 16 16 17 19 20 19 29 18 22 14 18 15 16 18 15 24 12 21 12 11 20 22 23 25 30 29 30 28 23 21 18 17 18 19 19 22 24 24 25 24 24 23 24 26 27 26 28 26 26 28 28 31 32 31 31 29 34 35 28 28 25 25 23 22 21 21 21 19 20 19 19 20 19 17 16 15 15
9 17 8 8 9 14 17 12 18 20 26 20 20 26 29 16 21 15 14 12 7 13 21 13 18 24 25 29 28 27 25 24 21 22 25 27 25 19 19 18 15 16 18 19 20 22 24 22 22 24 23 23 24 24 26 28 29 31 31 29 29 28 25 30 30 35 33 29 26 27 26 25 24 24 23 24 21 20 18 18 17 18 17 15 15 15
18 20 8 11 21 11 12 14 12 21 17 14 26 25 11 12 11 16 18 11 16 22 23 13 22 23 20 34 12 25 26 23 22 21 22 22 20 19 19 17 16 17 17 20 22 23 25 27 27 26 25 24 27 28 27 29 28 31 31 29 30 29 34 31 30 34 33 31 29 26 28 27 26 27 25 23 23 21 20 17 17 15 16 17 17 16
9 21 14 7 11 10 7 11 11 17 16 23 9 10 26 19 15 22 18 16 14 18 22 21 21 28 24 26 15 18 22 26 26 20 17 21 22 20 16 16 15 16 16 17 20 21 23 24 25 27 27 27 28 27 28 31 31 28 24 24 26 31 33 30 30 31 32 29 27 28 28 27 28 29 30 26 22 21 21 21 20 19 17 15 15 17
8 14 16 7 6 7 8 12 16 15 18 17 16 20 9 13 19 25 29 15 16 16 15 21 22 31 22 25 19 26 22 22 23 20 20 21 19 17 15 16 17 16 17 19 19 21 24 26 27 27 26 27 27 27 26 26 25 27 28 28 26 24 24 28 33 34 36 31 26 24 24 26 29 32 30 30 28 25 22 22 22 21 17 18 17 17
11 7 19 11 7 8 10 13 14 13 15 18 19 21 14 15 12 12 13 21 21 21 18 21 25 21 19 15 20 21 22 24 23 23 21 19 18 18 18 17 15 16 18 19 21 22 24 24 25 26 25 27 26 27 27 26 28 30 29 28 28 29 30 31 36 34 34 34 31 25 31 33 32 31 31 29 30 27 25 21 20 21 20 18 18 18
11 12 21 18 18 18 18 10 8 9 10 16 20 21 18 18 17 18 22 18 20 22 19 17 26 17 19 8 11 15 9 12 12 13 16 16 17 15 16 15 14 15 17 20 22 23 25 24 25 26 27 25 26 27 24 26 23 25 26 30 30 30 30 34 38 38 37 34 35 31 32 31 31 31 30 28 28 28 30 26 21 21 19 21 19 20
10 7 13 22 19 20 17 13 11 11 9 8 14 18 17 17 17 22 26 22 21 25 16 19 21 21 21 7 10 8 8 11 11 11 12 13 13 14 16 15 16 16 19 22 23 24 25 25 26 28 28 28 28 27 28 28 29 30 28 28 27 31 33 37 41 38 35 33 33 34 31 32 31 31 29 29 27 29 30 27 22 21 21 21 19 19
11 12 14 23 20 22 24 21 15 16 13 15 17 15 14 26 25 23 22 14 15 14 20 23 26 28 15 7 8 11 14 13 11 10 14 16 15 17 18 17 18 17 17 19 20 21 24 24 24 24 26 29 27 23 25 25 29 28 27 29 31 32 32 35 34 37 36 35 34 32 30 31 31 31 31 29 29 29 29 28 26 26 21 21 19 21
13 11 9 14 17 16 10 13 11 9 16 16 17 18 17 16 19 12 9 9 18 20 21 20 30 31 11 9 11 13 15 16 16 15 10 15 17 17 18 19 17 16 16 17 19 21 20 20 23 27 27 26 25 25 26 28 29 29 29 31 34 33 33 36 36 35 36 34 32 31 32 30 32 33 32 31 28 29 29 27 26 25 26 20 20 20
11 8 10 8 7 7 9 8 11 13 19 14 11 14 15 18 15 14 21 18 23 18 21 29 32 28 17 23 19 17 16 16 17 16 13 12 16 20 21 21 20 16 17 18 19 20 24 26 26 24 23 25 25 27 27 27 28 29 29 31 33 35 35 36 36 36 36 33 31 31 32 32 31 33 34 31 28 29 29 28 25 24 25 22 22 19
9 7 10 11 11 15 15 8 8 10 8 17 13 17 18 20 21 22 20 19 27 20 23 23 27 32 30 27 25 21 18 17 20 23 24 22 18 18 18 20 20 19 18 19 21 25 22 20 23 25 25 26 26 25 26 28 30 27 28 30 33 35 35 36 35 36 34 33 32 31 32 32 33 31 32 31 27 28 27 27 25 25 26 22 21 21
7 12 14 13 17 20 19 19 16 12 16 16 15 15 20 21 22 25 28 31 16 16 27 25 23 33 30 23 25 24 20 19 18 19 22 21 19 20 21 22 20 22 21 19 19 21 24 25 24 24 24 24 26 26 26 27 30 29 30 36 36 35 34 35 34 34 35 34 32 32 32 32 31 31 27 23 22 25 23 22 23 26 25 22 23 22
10 12 5 13 16 19 21 23 21 17 17 17 16 16 22 27 21 26 29 32 17 21 29 25 27 31 27 21 23 22 19 22 22 25 24 23 24 22 20 22 22 22 23 21 21 22 22 23 22 24 25 26 25 26 28 28 28 26 29 30 33 32 34 29 31 34 34 34 36 32 30 28 29 28 24 25 24 23 24 24 22 26 25 23 22 19
10 17 11 13 16 14 17 20 20 19 16 15 19 19 18 19 23 24 25 23 26 26 30 31 26 28 27 25 27 23 19 18 23 20 21 21 22 20 22 22 21 21 21 20 20 21 23 26 25 25 25 26 28 29 29 28 29 29 33 35 36 36 34 30 33 35 34 36 35 29 28 29 27 28 30 30 30 26 22 23 24 23 23 24 23 21
9 15 7 7 9 15 17 15 16 18 17 20 16 16 16 16 19 19 19 19 17 27 31 32 33 37 31 17 19 15 19 18 17 20 22 22 19 20 22 23 22 21 20 20 19 19 22 24 25 25 25 27 29 30 31 30 31 31 34 36 35 36 36 37 36 35 35 36 30 28 28 28 29 30 30 30 23 22 23 24 22 23 24 22 20 21
12 13 8 8 11 18 8 14 15 10 16 18 16 14 14 13 14 15 24 22 24 28 28 29 33 38 34 10 17 17 14 16 18 22 23 21 19 22 25 25 24 23 21 21 21 18 17 19 20 23 26 27 27 27 27 28 29 30 36 37 36 37 35 35 33 34 35 33 28 27 30 29 29 28 29 27 23 25 23 23 25 24 25 25 24 21
12 10 13 8 16 17 9 9 7 8 10 12 16 12 10 10 12 10 14 14 23 25 26 26 32 20 15 20 22 23 20 22 20 21 21 23 23 25 26 26 26 22 21 23 25 22 18 19 20 22 24 23 26 28 28 29 29 34 36 38 37 31 30 33 31 32 31 31 29 28 30 28 29 29 29 31 28 22 22 24 26 24 25 26 24 23
10 10 11 6 12 17 10 11 4 9 12 15 9 6 8 9 8 13 17 16 14 17 23 16 19 18 20 20 19 22 25 25 24 30 24 21 26 27 24 23 23 22 24 25 24 23 20 18 19 20 21 21 21 22 20 21 24 24 24 25 23 25 28 27 24 30 28 28 28 28 26 25 26 28 30 27 25 24 22 24 33 27 22 21 21 25
14 8 10 8 11 18 7 8 9 6 12 9 9 9 9 12 14 17 18 20 21 17 17 20 19 21 18 19 18 19 23 27 26 29 31 25 20 24 25 26 24 24 27 25 23 20 18 18 18 18 19 22 23 21 21 21 24 22 22 24 25 25 27 29 28 28 24 24 26 24 24 25 27 28 27 26 26 25 25 31 31 25 24 25 26 26
10 10 12 9 11 13 13 13 21 10 8 10 13 12 11 13 14 15 19 15 10 11 14 18 17 17 19 20 19 17 20 25 31 29 28 23 19 19 19 21 24 26 28 26 23 22 19 17 18 19 19 19 21 24 26 26 28 28 28 26 27 28 28 27 24 23 22 23 23 25 25 26 26 26 25 26 26 27 27 28 30 31 24 23 19 18
19 11 4 14 7 13 13 10 17 13 9 10 9 8 9 12 12 10 10 13 9 8 9 11 13 16 18 18 20 23 25 25 21 23 13 12 13 15 18 22 22 26 27 24 21 21 20 15 15 15 17 19 22 25 25 26 28 28 27 27 26 26 23 21 22 21 22 23 23 24 25 26 28 25 26 26 28 29 28 30 27 23 25 26 22 23
14 14 7 7 11 6 16 24 19 11 9 8 8 11 11 15 15 12 9 10 10 9 10 12 14 16 18 19 20 23 24 18 21 14 18 21 24 25 23 18 23 25 25 24 21 18 15 11 13 15 19 21 22 23 27 28 29 25 24 23 20 19 18 20 20 20 21 22 23 24 24 25 26 26 26 28 27 28 31 31 30 24 24 25 25 25
8 11 12 8 15 13 11 12 15 10 12 8 7 10 15 22 14 13 10 11 9 7 14 15 15 17 17 19 23 21 21 16 22 21 17 29 35 30 27 28 23 23 27 26 22 17 11 13 15 18 20 23 25 25 27 28 27 26 26 23 21 18 17 18 17 18 20 19 19 21 22 22 24 27 27 28 27 27 26 29 31 22 21 23 25 28
5 4 4 7 11 12 11 12 11 9 12 8 17 20 23 20 10 12 7 7 5 14 18 16 14 17 18 18 18 20 15 15 21 30 30 34 31 32 28 27 25 25 25 25 21 14 13 15 18 19 21 22 24 25 27 28 29 26 26 26 24 24 24 23 22 20 17 17 18 20 22 22 22 22 25 26 23 26 30 24 21 25 27 20 22 23
18 16 9 15 15 17 8 16 14 16 10 10 19 21 26 19 6 7 8 8 13 15 15 15 16 17 16 19 16 18 15 18 26 29 32 30 32 33 29 24 22 22 23 21 17 9 14 15 17 21 20 21 23 25 27 28 29 28 26 28 28 29 29 28 24 24 25 26 27 26 27 25 24 24 22 21 24 26 23 20 20 25 25 25 20 18
13 16 8 7 17 21 16 14 18 14 12 9 13 20 20 15 6 8 11 11 17 21 21 16 17 17 16 19 19 18 22 24 24 24 26 25 26 25 24 25 21 18 19 16 10 10 12 11 13 17 18 18 22 23 25 27 27 27 27 29 31 28 28 27 28 31 26 24 26 28 28 22 22 24 22 19 21 19 20 21 26 25 25 21 23 22
20 24 22 23 22 12 12 19 16 24 16 17 29 16 8 12 9 11 21 21 17 18 17 17 15 15 16 19 21 22 24 25 25 24 24 25 25 22 18 20 20 22 19 19 17 15 11 11 15 16 17 20 22 22 23 25 25 24 22 27 26 25 28 28 28 29 28 23 27 27 30 30 29 27 29 32 35 35 31 24 23 25 27 26 26 25
10 21 20 15 13 19 21 28 25 21 26 28 27 17 14 17 20 18 16 18 17 16 13 12 13 14 15 16 22 23 22 24 23 26 26 23 24 21 18 19 18 20 19 17 16 15 10 10 10 14 15 18 20 20 23 26 26 24 24 28 26 24 27 27 27 27 25 23 25 28 27 25 24 26 29 30 27 24 25 27 31 26 26 30 27 25
20 20 18 22 16 17 21 19 20 23 23 23 20 20 19 19 19 19 15 13 13 12 14 14 15 14 14 15 16 17 21 19 21 22 24 23 23 22 21 20 19 21 19 16 17 16 15 11 9 10 12 13 17 18 20 20 24 22 24 21 20 22 26 27 22 20 20 23 24 25 28 27 28 30 28 27 28 29 28 26 25 25 23 25 25 23
18 15 17 14 16 22 23 22 19 22 28 28 19 19 21 23 20 22 22 19 15 15 14 15 17 16 15 13 16 16 17 17 16 19 17 19 21 23 24 22 22 22 20 19 18 18 16 15 12 10 10 9 12 14 15 16 17 21 20 19 20 21 23 22 21 22 23 23 22 23 26 24 23 25 25 23 24 25 24 28 26 26 25 23 25 24
17 21 25 19 25 21 26 21 23 31 32 26 22 23 18 19 20 19 22 20 17 18 18 16 16 16 16 16 14 16 17 18 13 14 16 18 20 19 21 21 22 20 21 22 20 17 19 17 18 15 12 11 10 7 8 11 10 10 14 16 16 17 18 18 20 19 19 21 21 20 22 22 23 24 27 23 21 21 23 24 28 26 23 26 27 25
19 21 17 18 23 13 20 25 24 30 30 19 23 25 28 26 23 20 18 16 14 12 14 16 15 16 16 13 14 16 17 15 14 13 14 17 17 18 17 17 21 22 24 22 20 18 18 20 17 14 12 13 11 8 8 8 9 10 12 12 13 15 17 17 18 20 20 21 20 19 20 21 17 21 20 19 20 20 20 21 27 29 28 28 31 28
22 18 19 25 21 23 20 14 24 30 15 19 27 27 27 26 24 22 19 19 18 21 20 19 12 17 19 20 19 17 16 14 14 12 10 13 17 20 18 19 19 18 17 20 20 18 18 16 16 14 13 14 11 10 9 8 8 10 12 13 14 15 16 17 17 19 20 20 19 19 18 20 20 21 21 21 19 20 23 27 24 26 22 20 29 30
21 22 24 21 20 21 24 30 32 35 35 33 29 31 30 26 23 23 21 22 23 25 24 25 28 22 19 21 22 19 14 11 14 15 12 12 12 10 14 15 13 15 19 17 16 16 17 16 16 16 16 15 15 13 11 11 11 10 10 11 12 14 15 14 15 14 16 16 17 17 19 17 19 20 19 21 22 19 11 7 11 16 26 25 18 18
16 20 22 19 19 21 28 28 26 26 25 22 27 28 26 25 23 21 20 18 17 19 20 19 20 25 22 20 14 17 18 17 16 14 12 13 13 12 12 12 12 14 17 17 17 18 17 16 14 14 15 14 13 13 13 12 11 10 8 6 8 11 12 13 14 14 13 14 15 18 19 20 19 18 18 19 20 19 17 16 14 11 12 12 15 16
Wind_Speed
2 4 6 6 1 3 4 6 7 4 1 3 2 3 5 5 5 6 9 6 5 9 10 11 13 9 5 5 7 11 5 6 10 12 11 11 11 12 12 13 14 15 16 15 14 10 10 12 11 10 10 11 12 13 13 13 13 13 13 14 15 13 14 13 12 11 11 11 10 9 9 9 8 9 6 6 6 7 7 8 7 7 6 7 7 8
2 5 5 3 4 4 5 5 3 3 4 6 8 7 7 6 8 6 9 11 6 5 8 9 12 10 7 8 9 8 11 11 11 12 12 12 13 11 14 15 15 15 12 5 5 7 9 11 12 11 11 13 15 14 15 16 15 13 13 15 13 12 14 14 13 12 11 11 10 10 10 9 8 9 7 7 6 7 6 7 7 7 7 7 8 8
3 7 2 6 8 5 1 3 4 6 6 3 6 5 6 6 6 7 9 9 6 6 10 10 11 9 6 9 9 11 11 10 8 10 11 13 13 12 13 15 15 14 13 9 8 9 12 13 14 12 12 13 16 16 16 15 14 14 13 12 13 12 14 14 13 12 12 11 10 10 8 9 7 7 4 5 5 6 6 7 7 7 7 8 9 9
7 3 4 3 3 2 1 2 4 3 4 5 5 5 7 2 3 5 4 3 6 4 6 10 14 11 9 10 12 14 13 9 7 7 10 8 13 16 16 15 14 16 15 13 13 14 13 14 13 13 12 13 13 12 13 14 16 13 12 12 13 14 14 11 12 14 12 12 12 9 5 6 5 6 5 5 5 6 7 7 7 6 7 9 8 10
7 2 3 5 4 4 4 3 5 5 6 6 8 8 8 4 6 7 3 4 9 13 11 10 12 12 10 11 11 11 13 11 11 9 8 8 9 10 12 16 16 18 16 14 13 12 12 14 14 14 14 13 14 14 16 15 15 12 16 14 14 14 15 12 13 15 13 11 10 7 4 5 5 3 6 6 7 8 8 7 8 8 9 10 9 9
8 11 4 5 6 7 7 6 8 6 8 5 8 10 10 7 7 7 7 5 5 8 10 8 9 11 8 12 14 11 10 13 10 11 11 11 10 11 11 12 14 15 15 16 16 16 16 16 14 14 13 14 13 14 15 16 16 14 12 13 13 12 13 14 16 16 14 13 12 11 11 10 11 9 12 12 12 11 10 11 9 9 10 10 10 9
6 1 6 8 9 8 8 8 3 7 6 5 4 8 11 9 9 8 6 4 5 9 1 5 13 8 3 4 9 12 14 16 12 12 13 11 10 10 11 12 12 13 12 11 12 13 14 15 16 15 15 16 17 16 14 13 14 15 14 15 15 13 13 14 16 17 14 14 13 15 12 9 10 10 9 8 8 10 10 9 10 9 9 10 10 10
4 4 2 2 5 6 5 6 3 7 6 7 2 4 3 6 7 8 8 8 8 6 6 7 3 8 8 10 8 3 7 10 12 15 15 13 12 12 12 13 13 14 13 12 14 15 15 15 16 17 16 15 16 17 12 13 14 17 17 17 16 12 12 14 16 17 16 15 15 15 11 10 10 9 9 10 9 7 8 9 9 9 9 10 10 9
5 3 5 5 5 5 5 4 4 10 7 1 5 0 1 4 6 7 6 6 8 6 8 7 9 8 10 10 10 9 9 12 13 15 15 15 13 13 13 12 13 14 13 13 10 13 16 16 15 15 16 18 16 12 13 15 15 16 15 15 14 14 13 14 16 17 18 17 16 14 11 10 8 8 6 7 7 7 9 9 9 9 9 9 9 9
3 6 6 7 5 7 4 8 8 9 7 2 2 1 3 3 5 6 5 6 6 6 10 9 10 10 12 9 7 11 15 15 14 15 15 14 12 12 10 11 12 11 11 11 10 10 14 15 16 15 15 15 13 12 13 11 9 11 13 15 17 16 14 13 16 16 20 20 16 13 12 12 10 8 7 7 9 10 10 10 10 9 9 9 8 9
5 1 2 4 7 7 7 9 9 11 9 5 2 6 2 3 4 4 6 5 5 9 13 12 10 10 11 8 10 12 14 13 11 10 8 7 10 12 10 10 9 10 10 9 9 9 10 11 12 8 11 10 5 7 9 10 13 14 15 16 17 18 14 15 17 17 21 19 18 15 13 14 12 11 10 9 10 10 10 10 11 10 9 9 9 8
6 8 7 4 7 2 5 8 5 7 6 5 4 4 4 6 3 5 4 5 7 9 13 13 10 11 12 4 8 13 15 13 8 11 11 11 10 10 8 9 10 10 10 10 11 10 9 9 10 9 9 7 9 10 11 11 13 14 15 15 17 15 16 16 16 17 19 19 19 17 14 14 12 12 11 14 14 13 13 12 11 9 8 8 8 9
7 11 9 6 6 12 9 10 10 6 5 7 7 5 5 4 4 5 7 7 8 11 7 3 6 9 15 13 8 11 12 14 14 12 11 9 8 5 4 5 7 8 9 9 10 9 8 9 11 12 11 10 11 13 15 15 15 15 16 17 18 17 17 16 16 19 21 20 20 18 15 13 11 13 13 13 12 13 13 12 11 10 10 9 9 9
8 3 4 7 2 11 12 11 8 7 10 9 9 8 7 7 4 3 6 6 9 11 14 5 3 10 10 12 16 20 21 18 17 15 12 14 12 11 9 5 5 6 7 8 9 10 10 10 10 12 11 13 13 14 14 14 14 14 14 17 19 19 18 16 16 19 22 21 18 17 14 13 11 13 12 11 11 12 11 10 11 11 10 11 12 11
7 4 5 7 3 5 13 12 10 5 5 10 9 8 9 7 4 5 6 6 8 9 7 8 9 4 4 3 14 18 19 18 19 19 17 12 11 10 10 8 9 9 8 8 9 11 11 11 12 11 11 12 13 14 13 12 14 14 15 16 18 16 17 20 19 18 21 19 17 16 14 12 12 12 12 11 10 11 11 9 9 9 8 8 9 9
7 8 3 8 1 6 9 11 10 9 8 7 8 9 8 12 7 8 4 7 6 5 6 5 6 4 7 5 4 7 10 10 14 19 19 19 17 15 12 10 9 9 10 9 10 11 13 11 12 11 11 12 13 14 12 13 13 14 16 17 18 19 19 19 18 20 21 17 16 16 15 14 12 11 11 10 9 9 10 10 10 9 9 7 7 7
2 5 1 2 4 8 10 6 9 10 8 7 8 10 13 8 10 4 4 5 2 4 6 3 6 9 11 15 17 17 15 15 12 13 14 16 16 12 11 10 9 9 9 8 10 11 13 13 12 12 13 12 13 13 14 15 16 19 18 16 18 18 16 18 18 20 20 18 16 16 16 15 14 14 14 12 12 11 10 9 9 8 8 7 7 6
7 8 1 4 13 6 6 8 7 11 7 4 10 11 3 5 3 5 6 3 5 8 5 5 10 11 8 8 3 15 17 14 14 13 13 14 12 11 11 9 9 9 10 11 12 13 14 15 15 13 13 14 15 17 17 18 17 16 16 17 18 18 19 19 18 21 19 20 16 16 17 16 15 15 14 12 13 11 10 9 8 7 7 8 8 7
2 7 4 1 5 3 2 5 5 10 10 11 2 4 7 6 7 9 4 6 5 7 6 9 12 13 11 11 6 5 11 16 16 13 10 12 13 12 9 10 9 10 9 9 11 11 12 14 14 12 14 16 16 16 17 18 18 16 15 15 16 19 20 18 16 19 17 18 13 14 16 16 16 15 16 15 12 11 11 11 10 9 9 7 7 8
2 5 3 2 1 3 1 4 6 6 10 11 9 8 2 4 8 9 8 4 5 6 6 9 11 10 9 10 11 15 13 12 14 12 12 13 12 9 8 8 9 9 10 10 10 11 13 15 17 16 15 16 17 17 15 16 14 17 17 17 16 14 14 18 21 21 21 18 15 13 14 15 16 18 17 17 16 13 11 12 11 10 10 9 8 9
2 1 8 2 2 3 3 4 5 5 6 7 8 8 4 4 4 3 2 7 7 7 7 7 9 7 8 7 11 13 13 15 13 12 10 11 10 11 11 9 8 8 8 10 11 11 13 14 15 16 15 16 16 16 16 15 17 17 16 17 17 18 20 19 22 20 20 18 18 15 17 18 19 20 17 18 17 16 12 11 11 10 10 9 9 9
2 4 9 7 7 7 8 4 3 1 3 7 8 9 8 6 7 8 9 5 7 7 6 6 9 6 4 2 4 8 4 1 2 3 5 8 10 9 7 8 8 7 7 8 10 12 12 14 14 15 15 14 14 15 15 12 12 15 16 16 16 16 17 18 21 22 22 20 19 19 16 19 18 18 17 17 16 17 16 15 11 11 10 11 10 10
3 1 4 9 8 9 9 6 5 6 4 3 5 8 8 7 7 8 9 8 7 9 8 8 7 8 9 1 4 2 2 5 5 5 6 5 6 8 7 8 7 8 9 9 10 12 12 12 14 15 17 18 17 15 16 15 15 15 17 16 16 18 20 21 24 22 20 18 19 21 18 19 18 18 18 18 16 17 17 15 11 10 10 11 9 10
6 2 5 10 10 12 15 13 8 9 7 7 8 7 6 11 12 10 7 1 4 3 6 7 10 10 6 1 3 5 8 7 5 4 6 7 7 9 11 10 11 10 10 10 10 10 11 12 12 13 16 17 15 14 15 14 14 15 15 16 17 20 20 21 19 19 21 20 20 20 18 19 18 19 18 18 16 18 18 15 15 14 11 11 9 10
3 3 4 5 6 3 3 4 4 3 7 5 6 7 9 7 11 4 1 2 6 9 9 5 12 12 3 2 4 6 8 8 8 5 3 8 8 8 9 10 10 10 8 10 11 11 11 12 14 15 15 14 14 14 14 16 16 16 16 18 20 20 20 21 20 20 20 20 20 19 18 19 18 20 20 18 16 18 17 16 14 13 15 11 10 10
4 3 4 3 3 3 3 2 3 5 8 5 4 8 8 11 9 6 9 6 8 6 10 10 12 11 7 14 12 10 9 9 8 9 7 5 7 10 11 12 11 9 9 9 10 11 12 14 15 14 14 14 14 15 15 15 16 16 17 18 18 18 20 21 20 21 21 19 18 17 20 19 19 20 21 19 17 18 18 16 14 14 13 12 12 10
2 2 4 4 4 6 6 3 2 3 1 7 7 10 10 12 12 11 6 8 10 6 8 11 12 16 18 17 15 14 9 10 11 12 12 12 11 9 9 10 10 11 10 11 11 11 11 12 14 16 15 14 15 15 15 16 16 15 16 17 20 20 20 21 19 20 20 19 20 18 19 19 20 19 20 18 16 16 15 15 14 14 14 12 11 11
2 5 8 9 11 11 12 12 10 7 9 9 8 9 13 13 13 13 9 10 6 4 11 11 15 18 17 14 15 16 10 9 9 9 11 11 11 11 12 13 15 13 12 10 10 12 14 15 15 14 14 15 15 15 15 15 16 17 16 18 20 20 17 16 19 20 19 20 18 19 19 19 18 16 15 11 11 14 12 12 11 13 14 12 12 12
4 5 2 8 9 12 14 15 14 10 10 9 9 9 9 12 12 13 11 10 6 8 12 16 18 19 16 13 15 14 6 8 11 13 12 12 12 12 12 13 13 13 13 13 11 11 13 14 13 15 16 16 16 16 17 16 16 15 14 15 19 18 20 18 16 18 20 19 21 19 18 16 16 16 14 14 15 15 11 11 12 14 14 11 11 9
2 7 6 7 9 9 11 13 12 12 9 8 12 12 11 10 13 15 15 12 13 15 18 19 17 18 16 15 17 8 1 8 10 10 10 10 10 11 13 13 13 13 12 12 11 10 11 13 14 14 15 16 18 18 18 16 16 16 18 21 21 21 20 17 19 20 20 21 21 17 16 17 16 16 17 18 17 16 13 11 11 12 12 12 11 11
3 4 3 1 4 8 11 9 10 11 10 11 10 10 10 9 10 11 10 10 9 15 18 21 21 21 17 11 11 6 5 7 9 11 12 11 9 11 13 14 14 13 12 12 11 10 9 10 13 14 15 17 19 19 18 17 17 18 19 20 20 21 20 20 19 21 21 21 18 16 16 16 16 17 18 18 14 10 11 12 10 11 12 11 11 12
6 5 3 2 4 7 1 5 7 6 9 11 10 8 8 8 8 8 9 11 12 15 18 19 18 17 18 6 8 9 6 6 8 10 12 11 11 13 15 16 15 14 13 13 13 11 10 10 11 14 16 17 17 16 16 16 17 17 18 21 21 21 19 20 20 19 20 20 16 16 17 16 17 16 17 17 14 12 11 10 10 14 15 11 12 11
4 3 4 3 7 7 1 3 4 3 5 5 9 6 5 5 6 3 7 8 14 16 14 13 15 10 7 9 12 13 12 11 8 5 7 13 13 14 15 16 16 13 13 14 15 14 11 10 11 12 12 12 14 15 16 16 16 18 21 21 21 17 17 19 18 19 18 17 17 14 13 15 17 17 17 18 17 12 11 14 14 13 11 13 11 11
5 5 3 1 3 7 3 2 2 3 5 4 1 2 1 3 3 5 6 7 8 9 9 6 8 9 11 11 11 13 15 14 11 14 8 9 10 17 15 14 14 13 14 15 15 14 12 10 10 11 13 13 13 14 12 13 13 13 13 13 13 16 17 16 14 16 15 17 16 17 16 14 16 17 18 16 12 11 11 14 19 16 12 10 11 11
8 4 3 2 3 7 3 3 3 3 3 2 1 0 3 6 8 10 11 12 12 10 11 12 11 10 9 10 10 11 14 17 15 14 16 10 9 13 16 16 15 15 16 16 14 13 11 11 11 11 12 13 14 12 11 11 14 13 12 13 15 12 14 15 16 16 14 12 16 14 13 14 16 17 16 16 13 12 12 18 18 14 12 12 12 13
4 5 4 3 3 4 4 4 6 3 4 3 1 1 2 5 8 9 12 9 5 6 5 7 7 8 9 10 9 9 12 16 15 11 7 9 7 8 11 12 14 15 17 15 14 13 12 10 10 11 11 10 12 13 14 14 15 16 16 15 16 16 16 15 14 14 12 12 13 14 13 14 14 14 15 15 12 14 15 17 18 18 14 13 10 9
11 5 1 5 2 5 4 4 7 6 1 5 3 2 3 4 3 3 4 4 4 3 3 5 7 9 10 9 8 7 10 11 10 8 6 3 6 7 10 13 12 16 17 15 13 13 12 9 9 9 8 10 12 13 14 14 16 16 16 15 15 16 14 13 13 12 13 13 12 13 13 16 16 15 15 13 16 16 17 18 16 10 8 9 9 10
6 6 1 3 2 0 7 10 6 2 3 2 2 3 4 5 7 7 4 3 3 1 4 5 7 9 11 11 10 9 6 6 10 5 7 7 15 16 13 12 14 16 14 14 12 10 8 6 4 7 10 12 13 14 14 17 17 15 14 13 11 11 11 12 11 11 11 11 11 12 11 14 14 14 14 12 15 16 18 17 16 13 10 12 12 11
3 5 6 3 5 5 4 4 3 2 1 3 5 5 10 13 5 7 4 4 4 3 8 9 8 9 10 11 12 10 6 5 10 8 4 15 20 18 16 17 15 13 14 15 13 10 6 6 8 10 11 13 15 15 17 17 18 14 14 12 12 11 10 10 10 10 10 9 8 8 9 10 10 10 11 12 11 12 16 17 16 12 8 8 10 11
0 1 0 2 5 4 4 4 3 1 3 2 8 10 13 13 2 6 2 2 2 7 8 9 8 9 9 10 9 8 2 4 9 14 16 18 16 17 17 17 14 16 16 16 13 8 6 8 10 12 12 13 15 15 17 17 17 17 16 16 15 15 14 13 13 12 10 10 10 10 10 10 10 11 11 8 12 8 13 14 9 9 11 9 9 9
7 5 1 7 6 8 5 5 2 2 1 3 8 11 16 12 1 2 1 2 6 9 9 9 9 9 9 10 8 6 5 6 9 13 18 18 18 17 17 12 13 11 12 14 10 6 6 8 9 11 12 11 13 14 16 16 16 16 15 16 16 17 18 17 14 14 14 14 14 15 15 14 14 13 11 12 12 10 9 10 10 12 10 12 11 9
5 6 2 2 7 9 7 5 5 3 1 3 5 12 12 7 1 2 3 5 9 12 13 9 10 10 9 11 10 9 10 12 11 12 16 15 14 14 16 16 13 11 11 8 4 3 1 5 7 10 11 11 13 13 14 15 15 16 16 17 18 18 16 16 16 15 15 16 16 17 16 13 13 14 12 9 8 9 10 12 12 11 11 9 12 13
7 7 9 10 6 4 3 7 5 6 1 9 19 8 3 1 1 4 10 12 10 10 10 10 8 9 9 11 13 13 12 12 12 13 13 14 12 11 10 11 10 8 8 9 8 7 2 3 6 8 10 11 13 12 13 14 16 14 13 15 15 15 16 16 16 17 17 14 15 16 16 16 18 16 15 18 21 21 18 13 12 13 13 14 13 13
4 6 5 4 3 6 7 7 6 5 12 15 15 5 6 4 9 9 8 9 8 6 6 6 7 8 9 9 10 12 13 14 12 11 10 12 13 11 10 10 6 5 7 8 8 8 4 2 3 4 6 8 10 11 11 13 14 13 14 16 14 13 15 15 16 15 14 11 14 14 13 14 15 15 14 15 13 13 14 14 13 12 10 15 15 12
10 7 6 9 5 4 5 6 9 12 13 12 10 11 9 10 12 13 9 7 7 6 8 7 8 8 9 9 9 9 8 11 11 9 11 13 13 9 9 10 9 9 9 8 10 9 8 4 4 4 4 6 7 6 7 10 12 13 14 11 9 12 14 15 12 9 11 13 12 12 12 14 15 16 13 14 16 16 15 16 15 13 11 13 14 13
11 8 10 5 6 13 10 12 11 12 17 17 11 11 13 15 13 14 13 11 9 8 6 7 10 9 9 8 8 9 10 11 11 12 11 10 13 9 9 9 10 12 10 9 11 11 9 8 6 5 4 2 2 3 6 6 7 10 11 11 11 12 13 13 12 12 13 12 10 11 11 11 13 15 15 13 11 11 11 14 13 14 13 12 11 9
9 11 11 6 14 10 5 11 14 19 20 16 14 14 12 12 12 11 12 11 10 11 10 9 9 9 10 9 8 9 11 11 8 7 6 7 10 11 13 10 10 11 13 14 13 11 11 10 10 9 7 6 6 3 1 4 4 4 7 8 9 10 9 10 11 11 11 11 11 11 12 12 12 13 14 14 12 11 9 9 10 11 11 11 12 10
6 11 7 9 13 5 7 13 14 19 19 12 13 13 16 16 15 13 10 10 9 7 7 9 9 10 10 7 8 9 10 10 9 7 5 6 7 8 8 9 12 13 13 13 13 12 12 12 11 9 7 7 6 4 2 1 2 3 5 6 7 9 10 9 10 11 12 12 10 9 9 11 13 12 10 10 10 10 10 11 15 15 12 12 12 13
10 9 7 13 7 10 11 9 14 18 8 11 18 17 15 14 14 14 12 12 12 13 14 13 8 11 11 12 12 9 8 9 9 8 5 5 9 11 10 10 12 12 11 13 13 12 10 10 10 9 8 8 6 4 3 3 3 4 5 6 6 5 8 8 10 10 10 10 9 9 9 10 10 10 10 10 10 10 11 11 12 12 12 10 12 13
8 8 11 10 7 8 9 14 18 15 13 16 17 19 19 16 15 15 14 14 15 16 14 16 18 14 11 13 12 11 8 4 6 9 6 7 7 6 9 10 8 9 12 11 9 9 10 10 10 10 9 8 7 7 6 6 5 4 3 4 5 7 7 7 6 7 8 9 9 7 8 8 9 10 10 9 10 10 5 5 3 4 9 11 9 9
6 7 8 7 6 7 14 16 14 14 14 12 15 17 17 15 14 13 12 11 9 12 13 12 12 15 14 11 7 10 11 10 8 8 3 5 5 5 5 5 6 8 10 10 10 11 11 11 10 10 10 8 7 7 7 6 6 5 4 2 2 4 5 5 5 6 6 5 5 6 8 9 10 9 7 9 10 9 8 6 5 10 6 3 8 14
Wind_Direction
350 226 230 236 118 139 189 210 234 185 286 296 251 276 271 277 281 284 282 268 343 325 269 263 269 284 325 276 251 264 257 234 238 206 199 203 201 199 201 207 210 208 215 218 208 197 182 178 174 168 167 168 173 181 184 187 192 190 179 172 188 192 190 189 190 198 202 205 205 205 202 202 197 197 181 180 179 176 183 183 186 181 178 176 182 189
288 265 245 125 172 195 213 188 142 221 253 274 273 273 266 252 264 267 283 293 311 303 282 285 287 282 270 269 272 271 267 248 228 222 204 195 201 200 198 206 209 212 224 205 165 174 168 177 174 168 172 169 174 188 186 192 192 188 185 177 177 182 191 195 193 193 201 206 205 200 202 199 193 192 184 181 183 181 177 181 184 182 177 179 187 188
251 266 99 191 217 210 190 169 201 228 243 226 254 256 262 253 262 270 266 275 294 283 270 285 290 291 289 284 275 257 258 263 243 232 224 192 196 202 203 205 206 210 220 196 196 181 184 178 174 174 175 181 187 187 187 189 182 187 188 184 175 179 192 198 193 192 201 203 207 202 192 193 189 202 193 180 173 174 179 183 186 183 177 183 192 186
280 345 229 240 62 157 167 167 188 204 227 239 226 233 243 255 252 252 177 308 292 276 292 303 301 291 286 269 263 265 261 265 271 239 245 241 203 196 201 202 204 207 208 199 192 190 183 180 176 176 178 181 182 178 182 184 190 191 192 188 179 182 191 189 192 195 200 205 204 203 170 174 171 187 180 177 164 178 180 185 187 183 181 191 191 191
265 169 127 149 173 213 260 195 193 213 235 210 236 245 254 207 233 251 292 331 308 286 272 282 283 277 264 258 256 250 250 255 262 256 234 221 242 237 209 202 202 204 202 199 192 184 175 176 182 184 182 177 183 185 188 188 189 191 191 186 179 177 189 191 194 194 194 194 193 193 154 165 165 141 173 177 191 197 195 189 189 190 189 192 193 189
252 249 195 256 234 229 228 214 220 228 246 238 218 235 246 236 249 231 253 274 269 269 246 231 271 261 234 241 248 248 244 244 242 252 244 231 216 215 232 229 214 211 205 195 189 186 183 182 181 187 182 180 186 188 190 188 189 182 180 181 180 177 182 194 198 194 193 198 194 191 196 193 201 195 196 197 194 189 194 197 190 186 188 190 191 187
272 7 190 217 227 214 219 243 223 221 255 254 259 211 232 230 228 239 228 214 233 241 91 180 235 253 91 259 228 233 239 246 241 238 246 232 217 212 212 219 221 215 213 210 200 187 182 186 183 185 182 187 191 196 186 180 180 180 183 181 182 182 180 192 196 193 192 197 199 197 193 192 198 204 203 201 192 190 193 190 186 184 186 188 187 188
171 224 197 235 220 216 215 237 186 198 236 245 142 160 205 213 220 231 231 220 251 280 292 293 261 268 267 249 265 232 269 254 245 239 238 237 219 215 213 210 214 218 216 202 194 192 194 190 187 186 188 188 196 193 174 177 181 184 184 179 182 184 175 183 195 193 195 200 203 202 196 196 195 196 194 199 198 179 185 189 187 181 182 187 189 184
180 179 217 212 219 224 235 206 189 204 211 218 85 21 131 246 249 254 240 236 247 268 264 222 230 262 248 247 245 264 261 257 247 243 240 237 232 221 216 217 216 216 218 215 191 189 191 194 199 197 190 196 194 176 176 179 185 185 179 175 179 184 176 178 181 192 197 202 203 199 194 197 200 192 174 176 184 180 194 191 186 185 180 183 189 186
250 236 221 218 219 246 181 196 192 185 224 194 181 266 257 244 244 235 236 243 244 240 247 228 197 238 255 239 227 243 252 249 243 242 242 238 239 234 223 217 224 229 228 227 220 186 194 196 198 197 195 190 188 177 178 171 157 170 175 180 182 187 182 176 181 187 198 200 202 197 194 191 188 184 180 175 188 197 194 195 190 187 179 179 180 186
280 260 147 190 219 229 195 203 199 192 223 101 288 283 251 248 255 228 233 233 238 239 248 240 203 219 264 226 219 220 233 242 247 252 262 268 254 248 236 222 227 224 222 225 224 210 197 198 205 196 209 210 146 136 158 164 173 177 182 185 186 188 179 174 182 187 199 199 205 203 193 190 183 176 174 183 193 194 192 198 193 190 184 179 180 179
249 246 236 220 217 193 213 229 220 224 197 190 242 258 281 257 215 234 217 214 229 245 246 241 217 203 241 204 220 236 245 255 261 262 261 254 250 253 235 226 231 234 229 220 221 221 201 188 195 186 200 172 162 163 175 177 177 179 184 185 188 186 184 179 180 185 196 200 203 201 189 189 183 174 179 195 194 195 198 198 192 192 184 183 182 184
251 235 225 238 199 209 201 235 231 211 195 223 236 228 232 230 165 221 202 209 221 239 238 226 192 229 237 253 280 273 262 258 254 253 259 265 267 270 278 250 239 236 233 227 222 218 201 199 191 191 192 175 174 184 185 185 183 183 184 185 186 191 186 183 177 185 195 198 200 199 190 189 178 179 182 186 184 194 197 198 194 187 189 184 185 190
276 226 225 223 243 211 212 223 224 219 219 218 216 203 206 222 205 229 212 224 238 237 253 263 212 254 267 254 222 247 253 251 258 258 251 255 260 266 264 253 252 251 250 240 233 223 210 204 196 196 189 187 188 188 188 185 182 183 184 186 191 193 188 184 180 185 193 196 193 192 189 187 178 183 183 183 180 186 195 191 191 191 192 192 197 190
301 296 192 175 219 154 213 222 235 237 157 217 213 207 216 218 183 206 222 212 222 247 246 213 227 241 224 212 180 219 241 240 242 251 255 246 249 254 260 255 257 254 244 236 232 231 223 205 200 195 187 188 191 191 188 185 188 186 188 190 194 192 188 191 186 186 194 195 190 188 188 184 184 184 184 186 181 180 188 188 184 186 185 183 189 183
247 258 247 198 23 166 212 222 231 217 233 209 206 206 220 222 215 234 207 224 244 259 259 181 217 261 245 15 296 252 260 255 240 237 239 249 249 250 255 248 239 240 240 228 224 226 227 220 210 201 193 192 191 190 186 190 187 188 193 194 194 192 187 188 186 192 195 187 185 185 187 185 183 183 182 184 181 183 184 183 186 186 185 187 176 170
207 238 205 234 232 230 233 227 212 202 219 174 179 206 217 230 215 253 294 273 345 294 272 263 266 254 269 271 260 263 254 256 253 258 252 243 241 232 238 242 224 228 232 223 220 221 222 223 216 213 204 194 191 188 190 190 190 193 193 191 193 195 190 190 191 193 193 188 178 182 186 186 184 183 184 186 182 180 183 185 186 185 183 176 174 164
271 285 201 278 279 205 245 216 223 202 221 112 205 218 107 39 296 241 252 250 250 256 261 200 245 258 248 274 201 234 248 256 258 250 249 254 251 237 229 230 220 219 221 224 221 218 220 220 217 207 206 203 197 194 192 195 196 197 196 193 193 191 189 190 188 193 192 188 178 182 188 189 186 187 187 183 180 179 182 185 186 179 172 183 180 166
201 286 287 254 275 324 347 170 206 227 222 233 183 45 210 191 200 199 235 245 235 232 252 237 248 253 246 248 281 275 232 241 250 252 249 250 247 242 234 233 227 215 217 223 225 220 218 219 222 212 205 204 203 199 196 196 196 197 195 192 194 196 196 190 189 193 193 188 183 186 185 186 189 191 196 196 178 177 183 182 184 182 183 175 167 164
164 278 284 160 250 4 158 188 231 195 210 232 281 268 289 273 208 181 198 234 229 250 237 255 245 253 234 248 250 257 252 253 256 245 237 240 242 247 248 236 229 205 206 212 219 219 215 216 217 216 209 206 204 204 203 201 195 194 193 193 196 193 190 193 196 194 195 189 186 181 179 185 191 195 196 196 193 189 183 183 181 179 178 177 170 173
252 178 272 189 219 280 251 187 242 215 187 203 215 234 228 237 349 289 140 215 219 231 232 250 247 239 239 226 239 247 238 231 242 250 238 232 232 230 232 240 240 231 204 208 215 219 218 216 215 215 212 209 207 203 200 197 193 193 189 192 190 185 188 186 197 193 197 193 197 183 184 188 194 194 195 196 194 192 184 184 180 180 180 166 175 169
219 207 250 281 288 258 249 187 233 199 257 210 202 223 215 205 210 208 218 196 241 232 232 235 250 259 255 120 244 262 267 268 320 287 285 284 279 271 255 240 246 254 241 226 223 221 218 217 217 216 214 212 207 204 199 193 191 195 194 192 191 189 192 191 196 198 197 194 196 192 188 190 190 190 192 191 191 194 195 194 176 175 169 175 176 175
213 100 258 265 254 262 269 253 215 257 259 259 237 229 215 216 225 223 227 206 209 237 265 265 282 263 273 188 232 232 286 286 283 284 272 280 275 278 275 272 263 258 264 253 234 227 224 216 213 212 211 210 208 200 196 196 195 194 193 191 189 189 196 196 200 197 192 190 193 197 193 189 187 187 191 189 189 194 195 194 175 173 172 175 172 178
144 243 250 263 274 266 260 262 254 231 223 244 230 234 215 217 214 230 241 359 252 236 246 247 249 259 245 84 263 276 272 265 255 245 280 282 286 281 280 276 272 269 262 262 255 237 227 224 218 216 214 213 208 198 194 192 190 192 192 192 195 197 194 198 195 193 193 192 194 192 188 188 186 186 189 190 190 194 196 194 192 192 185 178 170 176
208 204 226 286 300 285 157 129 124 114 193 213 221 208 220 234 230 226 109 91 248 240 249 257 245 241 191 272 249 282 309 313 310 302 228 286 286 280 272 259 248 249 251 262 264 253 237 224 218 217 217 210 200 195 193 194 194 193 191 194 201 199 195 198 195 194 194 192 188 188 188 185 183 186 187 189 191 194 190 188 187 188 192 179 170 176
244 207 171 234 272 320 299 285 236 205 199 182 211 219 216 215 198 172 218 204 242 231 233 236 253 258 296 317 318 311 314 313 310 307 296 234 272 297 299 293 287 277 268 265 266 259 241 228 221 216 208 202 195 193 191 193 195 193 191 193 195 196 197 195 193 193 192 189 188 188 186 183 185 189 189 186 188 190 188 185 184 185 192 188 172 171
241 211 222 225 235 266 283 309 75 339 110 209 194 209 215 210 212 218 225 228 230 238 249 254 271 279 286 294 295 291 308 315 315 312 317 319 312 295 273 271 272 273 269 270 262 255 251 240 230 219 208 200 194 192 190 190 192 193 193 192 195 196 195 195 192 190 188 190 190 187 185 185 188 185 185 183 182 181 182 181 182 187 193 188 172 171
191 264 222 224 241 249 266 273 274 280 276 272 275 242 220 208 199 201 205 229 223 259 259 255 248 257 260 261 268 282 298 308 300 301 309 306 302 301 297 290 282 278 274 262 254 251 243 235 226 218 208 201 198 193 191 190 191 191 192 193 199 195 191 187 186 185 186 191 190 187 186 189 185 183 180 167 157 174 170 171 167 186 195 186 177 177
238 259 227 190 239 250 257 263 268 266 258 258 248 243 245 223 193 203 211 221 163 215 242 246 237 243 253 256 269 277 285 288 298 297 294 292 289 293 295 290 285 279 280 279 263 241 237 235 224 213 207 203 199 194 191 189 189 189 190 195 199 195 193 181 173 183 188 190 191 190 184 181 180 179 171 170 173 174 163 164 169 188 193 181 177 174
295 253 253 205 254 251 253 256 253 249 251 240 238 237 236 232 224 222 229 211 201 223 236 249 262 262 264 268 270 276 283 281 282 284 280 282 300 312 307 296 282 275 271 273 276 262 234 229 226 214 205 201 198 197 193 189 187 185 190 197 197 195 192 174 182 187 189 190 190 184 180 179 177 175 175 179 179 176 165 166 165 177 183 180 182 176
235 284 49 258 241 256 252 251 255 255 243 243 240 236 232 233 239 236 243 248 231 242 249 255 263 271 269 265 276 297 277 276 282 291 300 308 317 309 301 290 283 279 285 294 286 275 256 232 222 217 209 207 201 195 191 187 186 187 189 193 194 194 189 185 184 188 190 192 184 179 176 175 175 176 178 179 171 149 158 167 166 177 182 180 180 176
208 271 322 273 304 303 193 246 250 228 238 244 257 242 218 209 222 218 222 224 221 233 238 246 253 255 264 295 316 291 265 264 283 295 303 309 311 305 296 290 286 284 295 304 301 288 270 246 227 217 211 206 204 198 191 187 186 184 187 194 194 192 185 184 186 187 190 186 178 175 176 174 172 174 176 171 165 160 163 160 165 183 190 179 177 173
223 258 302 341 320 290 11 310 321 205 200 234 243 254 243 223 248 260 238 223 220 227 237 237 243 255 309 328 314 311 317 308 292 265 286 296 295 294 289 285 281 283 297 306 305 293 271 248 234 222 218 208 202 200 199 191 183 184 189 192 193 183 177 181 186 188 186 181 179 173 173 173 175 176 174 175 175 160 158 175 179 179 175 180 175 168
240 245 268 9 292 291 326 323 279 173 193 205 51 321 128 318 301 257 252 243 237 212 242 270 281 308 306 308 310 306 309 303 299 294 264 251 282 282 271 267 275 292 303 303 300 291 276 251 231 217 206 204 203 198 190 190 195 195 190 184 175 170 174 177 179 184 181 183 181 179 173 166 170 173 174 171 157 156 164 175 189 187 180 169 168 174
265 252 270 228 264 300 310 239 231 217 245 104 215 276 318 306 278 259 270 273 270 258 259 265 270 280 292 296 301 296 296 295 294 289 290 286 258 269 282 287 289 300 305 305 304 300 282 252 230 213 195 192 185 174 166 173 186 178 168 165 170 162 167 180 182 184 177 170 179 171 168 172 174 174 171 168 160 161 170 186 191 184 182 178 176 174
257 254 276 238 244 267 283 352 340 352 166 164 352 36 230 249 264 286 273 261 243 208 236 260 276 288 295 298 303 303 294 301 302 290 309 312 329 310 296 293 298 305 304 306 305 296 284 250 223 207 197 178 163 169 176 174 179 180 178 176 176 177 178 179 180 179 171 176 177 174 174 172 172 169 169 168 160 170 177 185 190 189 185 184 174 173
248 266 237 297 209 292 304 272 265 294 225 136 131 298 217 256 264 239 281 233 208 216 303 292 299 299 299 302 303 307 312 303 305 304 75 291 334 320 301 287 297 296 291 300 305 291 278 255 220 195 168 163 166 165 169 166 174 177 173 169 173 174 174 175 177 176 176 179 177 178 175 176 175 173 173 166 172 177 181 187 189 176 163 169 172 170
211 220 218 293 292 169 312 317 314 331 353 75 184 221 227 244 224 235 259 273 164 233 302 274 289 304 313 316 316 325 297 287 268 212 162 317 332 330 317 310 301 282 299 317 317 292 271 237 196 164 166 162 164 164 167 168 170 161 158 162 157 158 166 171 175 174 175 180 179 180 175 175 174 174 174 166 176 179 185 188 190 185 176 182 173 179
184 243 273 294 293 304 290 282 298 294 26 51 335 316 338 333 258 193 224 234 165 303 332 315 292 308 311 320 320 320 357 338 289 296 14 337 323 324 320 309 280 307 327 327 313 284 234 196 166 167 164 166 169 171 169 167 161 148 155 153 156 155 156 165 163 165 170 168 163 162 168 175 175 171 172 176 169 171 182 188 190 183 171 178 176 181
62 271 308 261 279 277 292 281 288 219 246 308 318 317 327 322 302 171 236 162 88 342 312 305 300 307 311 310 312 305 324 309 301 302 316 311 313 310 300 292 323 335 328 319 304 264 205 168 145 155 162 166 168 166 165 162 161 159 157 160 158 163 168 168 165 161 152 152 154 158 165 172 176 179 175 166 174 171 186 187 176 172 179 183 186 181
351 337 343 333 315 307 292 287 253 278 227 283 299 317 325 321 224 259 302 358 325 313 301 310 312 311 311 309 306 297 297 292 282 291 306 309 315 314 304 319 345 320 303 295 302 295 184 164 158 158 163 165 163 166 166 167 166 164 164 163 168 174 179 175 165 160 163 167 169 173 174 172 172 171 171 172 174 176 182 174 182 184 176 185 186 182
345 328 274 283 338 335 320 297 298 279 262 228 282 324 314 301 61 333 356 313 315 312 315 313 311 310 309 300 297 283 291 303 302 316 313 313 320 321 319 324 324 304 290 294 300 330 219 156 150 152 151 155 161 166 169 172 168 168 168 174 183 182 177 174 172 169 171 176 180 179 175 169 173 169 164 158 154 171 200 199 187 182 178 177 182 180
343 327 339 336 312 271 313 316 321 354 299 327 318 314 251 99 265 295 301 300 300 306 307 304 300 306 311 311 312 314 315 320 332 320 306 318 324 330 313 295 293 299 320 338 7 11 25 151 158 163 158 156 162 170 174 176 173 172 169 180 183 180 182 181 181 183 184 174 174 176 177 178 175 171 170 174 185 188 190 186 184 185 184 181 183 179
322 322 341 337 8 333 339 352 3 290 299 319 325 331 299 301 298 279 260 281 304 304 304 313 309 315 312 308 309 313 316 314 312 304 317 330 333 334 317 305 314 333 338 357 10 20 28 110 157 165 166 161 165 173 180 184 178 176 176 187 185 185 188 188 191 191 185 176 185 186 184 184 183 181 185 186 175 175 180 184 185 186 185 187 184 181
14 346 336 320 328 348 317 302 283 306 314 317 322 330 349 356 342 344 350 336 334 338 337 323 317 317 309 310 305 301 294 287 293 317 351 337 325 321 326 336 344 13 15 7 18 17 25 48 132 141 152 164 166 168 192 202 191 172 178 181 172 181 187 191 185 170 184 188 188 189 190 187 182 184 186 186 181 181 181 180 177 180 183 182 186 186
322 339 323 284 319 310 260 238 271 314 332 329 329 339 351 352 350 347 344 342 345 326 323 330 321 314 313 309 308 318 321 325 323 340 344 329 310 328 357 355 356 15 19 14 26 29 43 54 71 102 123 99 135 184 205 219 207 183 178 168 177 183 188 189 185 181 186 187 191 194 192 185 185 189 191 189 191 191 182 179 179 177 175 179 182 176
319 355 344 347 325 329 357 339 348 338 328 324 336 337 342 353 345 345 336 338 335 336 337 331 323 317 323 320 320 324 322 325 316 313 334 320 314 357 359 351 356 357 16 29 21 26 45 57 59 59 66 60 37 29 292 230 223 182 166 167 166 174 181 185 188 190 193 193 196 194 193 187 188 191 194 189 187 184 177 180 182 179 174 177 178 169
331 355 329 346 325 330 314 315 338 332 314 322 340 341 345 345 344 342 336 327 325 316 335 332 328 342 347 328 337 341 332 317 317 318 354 339 333 354 1 356 2 359 0 22 36 33 42 53 64 64 64 56 45 56 67 212 192 159 156 155 146 164 177 182 189 194 200 200 195 192 189 192 188 185 185 184 180 179 180 185 187 185 179 182 181 171
298 318 356 325 307 289 279 294 333 318 282 334 342 349 343 345 342 336 341 344 344 344 349 345 356 355 356 351 346 350 330 322 321 321 336 358 11 360 352 12 8 359 358 11 23 32 44 47 52 54 53 51 44 63 91 110 128 146 136 147 158 155 174 183 191 197 199 201 200 197 192 192 188 190 180 174 182 189 183 178 183 189 195 187 177 179
341 6 333 337 344 340 346 331 342 347 338 331 338 340 338 343 343 341 353 358 352 344 346 349 341 348 0 354 348 332 328 334 339 324 337 32 38 354 357 11 354 8 21 19 21 22 27 38 47 49 45 36 31 29 31 33 35 44 81 143 162 171 175 186 197 208 211 207 203 197 193 197 193 193 178 166 174 177 151 21 4 269 189 179 191 190
5 333 339 348 337 309 310 325 334 320 301 298 322 332 331 342 342 339 344 346 345 338 337 345 345 335 338 343 347 343 350 349 341 302 342 44 48 36 40 20 17 21 27 26 33 32 32 29 28 35 36 29 29 28 25 23 20 25 38 63 140 192 200 188 190 208 221 209 207 198 195 196 199 194 173 167 170 170 155 138 78 49 64 137 170 163